KC2DUX Weather Reports


Display with metric or nautical units.
time (UTC)temp
F
wind
direction
speed
MPH
gust
MPH
rain 1hr
in
rain 24hr
in
rain mn
in
humidity
%
barometer
mb
20260903165059 81 208 0.0 1.0 0.00 1.02 1.00 82 1015.4
20260903164558 82 280 0.0 1.0 0.00 1.02 1.00 81 1015.4
20260903164058 82 318 0.0 0.0 0.00 1.02 1.00 81 1015.6
20260903163600 81 227 0.0 0.0 0.00 1.02 1.00 83 1015.6
20260903163057 81 278 0.0 0.0 0.00 1.02 1.00 83 1015.7
20260903162556 81 244 0.0 1.0 0.00 1.02 1.00 83 1015.5
20260903162056 81 229 0.0 1.0 0.00 1.02 1.00 83 1015.5
20260903161556 81 269 0.0 1.0 0.00 1.02 1.00 82 1015.5
20260903161056 82 207 0.0 0.0 0.00 1.02 1.00 82 1015.3
20260903160554 81 267 0.0 0.0 0.00 1.02 1.00 82 1015.4
20260903160054 81 251 0.0 1.0 0.00 1.02 1.00 81 1015.6
20260903155553 81 249 0.0 1.0 0.00 1.02 1.00 81 1015.4
20260903155054 81 223 0.0 0.0 0.00 1.02 1.00 82 1015.3
20260903154554 81 221 0.0 0.0 0.00 1.02 1.00 81 1015.3
20260903154052 81 264 0.0 0.0 0.00 1.02 1.00 82 1015.2
20260903153552 81 237 0.0 0.0 0.00 1.02 1.00 81 1015.3
20260903153051 81 304 0.0 0.0 0.00 1.02 1.00 82 1015.2
20260903152550 80 206 0.0 0.0 0.00 1.02 1.00 82 1015.2
20260903152051 80 229 0.0 0.0 0.00 1.02 1.00 82 1015.0
20260903151604 80 261 0.0 0.0 0.00 1.02 1.00 82 1015.0
20260903151051 80 253 0.0 0.0 0.00 1.02 1.00 81 1014.9
20260903150548 80 255 0.0 0.0 0.00 1.02 1.00 82 1014.8
20260903150051 80 268 0.0 0.0 0.00 1.02 1.00 82 1014.8
20260903145548 80 232 0.0 0.0 0.00 1.02 1.00 82 1014.7
20260903145047 79 292 0.0 0.0 0.00 1.02 1.00 83 1014.5
20260903144545 79 211 0.0 0.0 0.00 1.02 1.00 83 1014.6
20260903144045 79 249 0.0 0.0 0.00 1.02 1.00 84 1014.7
20260903143543 79 220 0.0 0.0 0.00 1.02 1.00 85 1014.9
20260903143042 78 219 0.0 0.0 0.00 1.02 1.00 86 1014.8
20260903142541 77 260 0.0 0.0 0.00 1.02 1.00 88 1015.0
20260903142040 77 223 0.0 0.0 0.00 1.02 1.00 89 1015.0
20260903141541 76 227 0.0 9.0 0.00 1.02 1.00 90 1015.1
20260903141037 75 267 1.0 9.0 0.00 1.02 1.00 92 1015.0
20260903140535 75 210 2.0 9.0 0.00 1.02 1.00 92 1014.8
20260903140034 74 223 5.0 9.0 0.00 1.02 1.00 92 1014.5
20260903135533 74 203 0.0 10.0 0.00 1.02 1.00 93 1014.6
20260903135034 74 227 1.0 6.0 0.01 1.02 1.00 93 1014.5
20260903134531 74 223 0.0 5.0 0.01 1.02 1.00 93 1014.8
20260903134029 73 214 1.0 7.0 0.02 1.02 1.00 93 1014.5
20260903133532 73 248 4.0 7.0 0.02 1.02 1.00 93 1014.8
20260903133027 73 221 3.0 7.0 0.02 1.02 1.00 93 1015.0
20260903132525 73 222 3.0 7.0 0.02 1.02 1.00 94 1015.1
20260903132024 73 227 3.0 10.0 0.02 1.02 1.00 94 1015.0
20260903131525 73 217 5.0 10.0 0.02 1.02 1.00 94 1015.2
20260903131024 73 223 5.0 10.0 0.02 1.02 1.00 94 1015.4
20260903130525 72 220 2.0 7.0 0.02 1.02 1.00 94 1015.5
20260903130026 72 208 3.0 6.0 0.02 1.02 1.00 94 1015.0
20260903125523 72 202 2.0 7.0 0.04 1.02 1.00 94 1014.9
20260903125023 72 220 3.0 5.0 0.04 1.01 0.99 94 1015.3
20260903124521 73 223 2.0 5.0 0.04 1.01 0.99 94 1015.6
20260903124023 72 126 1.0 4.0 0.03 1.00 0.98 94 1016.1
20260903123520 73 91 2.0 3.0 0.03 1.00 0.98 94 1016.5
20260903123023 73 293 0.0 3.0 0.03 1.00 0.98 94 1017.4
20260903122522 73 285 1.0 4.0 0.03 1.00 0.98 95 1017.2
20260903122022 72 220 0.0 7.0 0.03 1.00 0.98 95 1017.2
20260903121521 72 242 3.0 7.0 0.03 1.00 0.98 94 1017.1
20260903121021 72 230 2.0 6.0 0.03 1.00 0.98 94 1016.9
20260903120520 72 232 3.0 6.0 0.03 1.00 0.98 95 1016.9
20260903120022 72 243 3.0 5.0 0.03 1.00 0.98 95 1017.1
20260903115520 72 234 2.0 5.0 0.01 0.98 0.96 95 1017.1
20260903115019 72 265 1.0 4.0 0.00 0.97 0.95 95 1017.2
20260903114518 72 219 2.0 4.0 0.00 0.97 0.95 95 1017.0
20260903114018 72 271 0.0 4.0 0.00 0.97 0.95 95 1017.1
20260903113519 72 223 0.0 4.0 0.00 0.97 0.95 95 1016.9
20260903113018 71 224 1.0 3.0 0.00 0.97 0.95 95 1016.8
20260903112518 71 223 0.0 3.0 0.00 0.97 0.95 95 1016.6
20260903112018 71 223 1.0 3.0 0.00 0.97 0.95 95 1016.6
20260903111518 71 192 1.0 2.0 0.00 0.97 0.95 95 1016.8
20260903111017 71 105 0.0 2.0 0.01 0.97 0.95 94 1017.0
20260903110517 71 105 0.0 2.0 0.03 0.97 0.95 94 1017.0
20260903110017 71 105 0.0 4.0 0.03 0.97 0.95 94 1017.1
20260903105517 72 190 0.0 4.0 0.07 0.97 0.95 95 1016.8
20260903105017 71 221 1.0 3.0 0.07 0.97 0.95 95 1016.9
20260903104516 71 215 0.0 1.0 0.11 0.97 0.95 95 1017.1
20260903104017 71 215 0.0 1.0 0.23 0.97 0.95 95 1017.2
20260903103516 71 215 0.0 2.0 0.27 0.97 0.95 95 1017.3
20260903103016 71 215 1.0 2.0 0.27 0.97 0.95 95 1017.3
20260903102516 71 134 0.0 2.0 0.27 0.97 0.95 94 1017.3
20260903102020 71 108 0.0 2.0 0.27 0.97 0.95 94 1017.2
20260903101536 71 82 0.0 3.0 0.30 0.97 0.95 94 1017.0
20260903101015 71 100 1.0 3.0 0.28 0.96 0.94 94 1017.0
20260903100514 72 59 0.0 3.0 0.27 0.94 0.92 94 1017.3
20260903100013 72 50 0.0 5.0 0.26 0.93 0.91 94 1017.3
20260903095517 72 111 1.0 5.0 0.23 0.90 0.88 95 1017.6
20260903095013 72 73 0.0 5.0 0.22 0.89 0.87 95 1017.5
20260903094513 72 49 0.0 2.0 0.18 0.85 0.83 95 1016.8
20260903094013 72 53 0.0 1.0 0.06 0.73 0.71 95 1016.7
20260903093513 72 215 0.0 2.0 0.03 0.70 0.68 95 1016.7
20260903093013 72 215 0.0 1.0 0.03 0.70 0.68 95 1016.7
20260903092512 72 215 0.0 2.0 0.03 0.70 0.68 95 1016.5
20260903092013 72 215 0.0 2.0 0.03 0.70 0.68 95 1016.5
20260903091513 72 118 0.0 2.0 0.00 0.67 0.65 95 1016.4
20260903091011 72 119 0.0 1.0 0.00 0.67 0.65 94 1016.5
20260903090512 72 118 0.0 1.0 0.00 0.67 0.65 94 1016.3
20260903090011 72 118 0.0 2.0 0.03 0.67 0.65 94 1016.4
20260903085511 72 118 1.0 2.0 0.04 0.67 0.65 94 1016.2
20260903085010 72 118 0.0 1.0 0.04 0.67 0.65 94 1016.1
20260903084524 72 118 0.0 1.0 0.04 0.67 0.65 94 1016.2
20260903084010 72 118 0.0 1.0 0.06 0.67 0.65 94 1016.3
20260903083512 72 118 0.0 1.0 0.10 0.67 0.65 94 1016.3
20260903083018 72 118 0.0 1.0 0.12 0.67 0.65 94 1016.4
20260903082511 72 119 0.0 2.0 0.14 0.67 0.65 94 1016.4
20260903082009 72 118 0.0 2.0 0.14 0.67 0.65 94 1016.4
20260903081509 72 196 0.0 2.0 0.14 0.67 0.65 94 1016.6
20260903081008 72 196 1.0 3.0 0.15 0.67 0.65 94 1016.3
20260903080509 72 128 1.0 3.0 0.16 0.67 0.65 94 1016.2
20260903080016 72 116 1.0 3.0 0.20 0.63 0.61 94 1016.1
20260903075508 72 85 1.0 3.0 0.52 0.63 0.61 94 1016.3
20260903075007 72 99 1.0 3.0 0.61 0.63 0.61 94 1016.5
20260903074507 72 231 2.0 6.0 0.60 0.62 0.60 94 1016.6
20260903074011 72 142 2.0 9.0 0.57 0.60 0.57 94 1016.6
20260903073507 72 113 3.0 9.0 0.55 0.56 0.55 94 1016.5
20260903073007 72 22 1.0 4.0 0.53 0.55 0.53 94 1017.1
20260903072506 72 316 0.0 8.0 0.51 0.53 0.51 94 1017.0
20260903072006 72 76 2.0 8.0 0.51 0.53 0.51 94 1017.0
20260903071506 72 31 0.0 4.0 0.51 0.53 0.51 94 1017.0
20260903071010 72 63 1.0 6.0 0.50 0.52 0.50 94 1016.7
20260903070505 72 51 1.0 10.0 0.48 0.50 0.48 94 1016.8
20260903070006 72 11 3.0 10.0 0.39 0.41 0.39 93 1017.0
20260903065505 72 334 3.0 10.0 0.06 0.08 0.06 94 1018.1
20260903065003 72 27 1.0 6.0 0.00 0.02 0.00 94 1017.8
20260903064502 72 348 0.0 1.0 0.00 0.02 0.00 94 1016.5
20260903064002 72 27 0.0 1.0 0.00 0.02 0.00 94 1016.0
20260903063502 72 27 0.0 2.0 0.00 0.02 0.00 94 1016.1
20260903063001 72 336 0.0 2.0 0.00 0.02 0.00 94 1016.2
20260903062501 72 67 0.0 1.0 0.00 0.02 0.00 94 1015.9
20260903062001 72 67 0.0 1.0 0.00 0.02 0.00 94 1015.9
20260903061600 72 67 0.0 1.0 0.00 0.02 0.00 94 1016.1
20260903061059 72 67 0.0 1.0 0.00 0.02 0.00 93 1016.2
20260903060559 72 67 0.0 2.0 0.00 0.02 0.00 93 1016.3
20260903060100 72 69 0.0 1.0 0.00 0.02 0.00 93 1016.2
20260903055601 72 69 0.0 1.0 0.00 0.02 0.00 93 1016.2
20260903055058 72 69 0.0 1.0 0.00 0.02 0.00 93 1016.1
20260903054609 72 69 0.0 1.0 0.00 0.02 0.00 93 1016.1
20260903054057 72 69 0.0 1.0 0.00 0.02 0.00 93 1016.2
20260903053556 72 69 0.0 1.0 0.00 0.02 0.00 93 1016.3
20260903053105 72 69 0.0 0.0 0.00 0.02 0.00 93 1016.4
20260903052555 72 69 0.0 1.0 0.00 0.02 0.00 93 1016.5
20260903052057 72 69 0.0 1.0 0.00 0.02 0.00 93 1016.7
20260903051555 73 82 0.0 2.0 0.00 0.02 0.00 93 1016.6
20260903051055 73 82 0.0 2.0 0.00 0.02 0.00 93 1016.4
20260903050553 73 67 0.0 3.0 0.00 0.02 0.00 93 1016.5
20260903050052 73 37 0.0 3.0 0.00 0.02 0.00 93 1016.6
20260903045551 73 73 0.0 2.0 0.00 0.02 0.00 92 1016.8
20260903045050 73 64 0.0 1.0 0.00 0.02 0.00 92 1016.8
20260903044553 73 64 0.0 1.0 0.00 0.02 0.00 92 1017.0
20260903044049 73 101 0.0 1.0 0.00 0.02 0.00 92 1016.9
20260903043548 73 101 0.0 1.0 0.00 0.02 0.00 92 1016.9
20260903043046 73 101 0.0 1.0 0.00 0.02 0.00 92 1016.9
20260903042546 73 101 0.0 1.0 0.00 0.02 0.00 92 1016.8
20260903042043 73 101 0.0 2.0 0.00 0.02 0.00 92 1016.9
20260903041554 73 101 0.0 2.0 0.00 0.02 0.00 92 1016.9
20260903041040 73 49 0.0 2.0 0.00 0.02 0.00 92 1017.0
20260903040539 73 50 0.0 2.0 0.00 0.02 0.00 92 1017.1
20260903040046 73 80 0.0 2.0 0.00 0.02 0.00 92 1017.2
20260903035542 74 37 0.0 3.0 0.00 0.02 0.02 92 1017.5
20260903035038 74 37 0.0 3.0 0.00 0.02 0.02 92 1017.4
20260903034537 73 24 0.0 1.0 0.00 0.02 0.02 92 1017.4
20260903034037 73 105 0.0 1.0 0.00 0.02 0.02 92 1017.3
20260903033536 73 105 0.0 1.0 0.00 0.02 0.02 92 1017.4
20260903033036 74 105 0.0 1.0 0.00 0.02 0.02 92 1017.4
20260903032536 73 105 0.0 0.0 0.00 0.02 0.02 92 1017.4
20260903032038 73 105 0.0 0.0 0.00 0.02 0.02 92 1017.3
20260903031535 73 105 0.0 0.0 0.00 0.02 0.02 92 1017.1
20260903031036 73 105 0.0 1.0 0.00 0.02 0.02 92 1017.2
20260903030538 73 105 0.0 1.0 0.00 0.02 0.02 92 1017.1
20260903030041 73 105 0.0 1.0 0.00 0.02 0.02 92 1017.1
20260903025536 73 105 0.0 2.0 0.00 0.12 0.02 92 1017.1
20260903025035 73 105 1.0 3.0 0.00 0.12 0.02 92 1017.0
20260903024535 73 49 1.0 3.0 0.00 0.12 0.02 92 1017.0
20260903024134 73 85 0.0 2.0 0.00 0.12 0.02 92 1017.1
20260903023534 73 80 0.0 4.0 0.00 0.12 0.02 92 1017.0
20260903023036 73 97 0.0 4.0 0.00 0.12 0.02 92 1017.1
20260903022533 73 69 0.0 2.0 0.00 0.12 0.02 92 1017.2
20260903022033 73 55 0.0 2.0 0.00 0.12 0.02 92 1017.1
20260903021534 73 51 0.0 2.0 0.00 0.12 0.02 92 1017.2
20260903021034 74 77 0.0 3.0 0.00 0.12 0.02 91 1017.3
20260903020533 73 66 0.0 3.0 0.00 0.12 0.02 91 1017.2
20260903020033 74 86 0.0 2.0 0.00 0.12 0.02 91 1017.1
20260903015535 74 70 0.0 2.0 0.00 0.12 0.02 91 1017.2
20260903015033 73 73 0.0 3.0 0.00 0.12 0.02 91 1017.4
20260903014532 74 42 0.0 4.0 0.00 0.12 0.02 91 1017.2
20260903014036 74 74 0.0 3.0 0.00 0.12 0.02 91 1017.2
20260903013533 74 41 0.0 1.0 0.00 0.12 0.02 91 1017.2
20260903013034 74 41 0.0 2.0 0.00 0.12 0.02 91 1017.2
20260903012533 74 57 1.0 2.0 0.00 0.12 0.02 91 1017.2
20260903012032 74 113 0.0 2.0 0.00 0.12 0.02 91 1017.2
20260903011532 74 113 0.0 3.0 0.00 0.12 0.02 91 1017.2
20260903011031 74 118 1.0 2.0 0.00 0.12 0.02 91 1017.4
20260903010531 74 77 0.0 2.0 0.00 0.12 0.02 91 1017.5
20260903010035 74 59 0.0 2.0 0.00 0.12 0.02 91 1017.5
20260903005532 74 43 0.0 1.0 0.00 0.12 0.02 91 1017.5
20260903005035 74 43 0.0 1.0 0.00 0.12 0.02 91 1017.6
20260903004531 74 116 0.0 1.0 0.00 0.12 0.02 91 1017.6
20260903004032 74 116 0.0 1.0 0.00 0.12 0.02 91 1017.4
20260903003531 74 116 0.0 1.0 0.00 0.12 0.02 91 1017.4
20260903003030 74 116 0.0 1.0 0.00 0.12 0.02 91 1017.2
20260903002530 74 116 0.0 3.0 0.00 0.12 0.02 91 1017.1
20260903002032 74 116 0.0 3.0 0.00 0.12 0.02 91 1017.2
20260903001551 74 119 0.0 2.0 0.00 0.12 0.02 90 1017.1
20260903001029 74 129 0.0 2.0 0.00 0.12 0.02 90 1017.1
20260903000529 74 90 0.0 4.0 0.00 0.12 0.02 90 1017.0
20260903000029 74 74 1.0 4.0 0.00 0.12 0.02 90 1017.2
20260902235532 74 68 0.0 3.0 0.00 0.12 0.02 90 1017.4
20260902235028 74 78 0.0 2.0 0.00 0.12 0.02 90 1017.2
20260902234531 74 68 0.0 3.0 0.00 0.12 0.02 90 1017.2
20260902234028 74 87 0.0 3.0 0.00 0.12 0.02 90 1017.2
20260902233528 74 78 0.0 2.0 0.00 0.12 0.02 90 1017.1
20260902233028 74 78 0.0 2.0 0.00 0.12 0.02 90 1017.2
20260902232527 74 78 0.0 3.0 0.00 0.12 0.02 90 1017.1
20260902232027 74 13 0.0 3.0 0.00 0.12 0.02 90 1017.0
20260902231530 74 74 0.0 2.0 0.00 0.12 0.02 90 1017.0
20260902231027 74 88 0.0 2.0 0.00 0.12 0.02 89 1017.1
20260902230528 74 113 0.0 4.0 0.00 0.12 0.02 89 1017.1
20260902230027 74 43 1.0 4.0 0.00 0.12 0.02 89 1017.1
20260902225528 74 98 1.0 3.0 0.00 0.12 0.02 89 1017.2
20260902225026 74 37 0.0 5.0 0.00 0.12 0.02 90 1017.1
20260902224525 74 87 1.0 2.0 0.00 0.12 0.02 90 1017.2
20260902224027 74 32 0.0 4.0 0.00 0.12 0.02 89 1017.3
20260902223525 74 103 2.0 4.0 0.00 0.12 0.02 89 1017.1
20260902223028 74 38 1.0 6.0 0.00 0.12 0.02 89 1017.2
20260902222525 74 66 2.0 6.0 0.00 0.12 0.02 89 1017.2
20260902222029 74 134 1.0 3.0 0.00 0.12 0.02 90 1017.2
20260902221524 74 114 0.0 3.0 0.00 0.12 0.02 90 1017.4
20260902221024 74 109 0.0 4.0 0.00 0.12 0.02 90 1017.4
20260902220524 74 113 2.0 6.0 0.00 0.12 0.02 90 1017.3
20260902220024 74 89 1.0 7.0 0.00 0.12 0.02 90 1017.3
20260902215524 74 114 2.0 5.0 0.00 0.12 0.02 90 1017.5
20260902215024 74 97 1.0 4.0 0.00 0.12 0.02 90 1017.6
20260902214522 74 85 1.0 4.0 0.00 0.12 0.02 90 1017.6
20260902214023 74 91 1.0 4.0 0.00 0.12 0.02 90 1017.7
20260902213522 74 108 1.0 3.0 0.00 0.12 0.02 90 1017.6
20260902213022 74 103 1.0 3.0 0.00 0.12 0.02 90 1017.7
20260902212522 74 59 1.0 3.0 0.00 0.12 0.02 90 1017.6
20260902212024 74 60 0.0 3.0 0.00 0.12 0.02 90 1017.6
20260902211521 74 61 1.0 3.0 0.00 0.12 0.02 90 1017.6
20260902211021 74 42 0.0 5.0 0.00 0.12 0.02 90 1017.7
20260902210521 74 116 1.0 7.0 0.00 0.12 0.02 90 1017.7
20260902210020 74 59 1.0 7.0 0.00 0.12 0.02 90 1017.6
20260902205520 74 88 1.0 8.0 0.00 0.12 0.02 90 1017.5
20260902205024 74 76 2.0 8.0 0.01 0.12 0.02 90 1017.4
20260902204522 74 104 4.0 8.0 0.01 0.12 0.02 90 1017.4
20260902204019 74 63 0.0 7.0 0.01 0.12 0.02 90 1017.5
20260902203519 74 107 2.0 7.0 0.01 0.12 0.02 90 1017.3
20260902203019 74 130 3.0 8.0 0.02 0.12 0.02 90 1016.9
20260902202519 74 137 1.0 9.0 0.02 0.12 0.02 91 1016.8
20260902202022 74 26 2.0 9.0 0.02 0.12 0.02 90 1016.9
20260902201518 74 125 2.0 9.0 0.02 0.12 0.02 90 1017.0
20260902201020 74 96 2.0 9.0 0.02 0.12 0.02 90 1017.0
20260902200517 74 67 1.0 8.0 0.02 0.12 0.02 90 1017.0
20260902200019 74 90 1.0 8.0 0.02 0.12 0.02 89 1017.0
20260902195517 74 115 2.0 7.0 0.02 0.12 0.02 88 1016.7
20260902195016 75 128 3.0 7.0 0.01 0.11 0.01 88 1016.7
20260902194515 75 119 1.0 7.0 0.01 0.11 0.01 87 1017.0
20260902194016 75 115 2.0 6.0 0.01 0.11 0.01 86 1017.1
20260902193516 76 166 2.0 6.0 0.01 0.11 0.01 86 1017.1
20260902193016 76 127 3.0 6.0 0.00 0.10 0.00 84 1017.2
20260902192515 76 223 3.0 7.0 0.00 0.10 0.00 82 1017.2
20260902192014 76 224 2.0 7.0 0.00 0.10 0.00 82 1017.6
20260902191519 76 144 1.0 8.0 0.00 0.10 0.00 82 1017.8
20260902191014 77 106 2.0 8.0 0.00 0.10 0.00 81 1018.1
20260902190514 77 96 3.0 6.0 0.00 0.10 0.00 81 1018.3
20260902190019 77 84 0.0 9.0 0.00 0.10 0.00 81 1018.5
20260902185515 77 132 2.0 9.0 0.00 0.10 0.00 80 1018.4
20260902185015 78 94 3.0 6.0 0.00 0.10 0.00 80 1018.5
20260902184512 78 50 1.0 6.0 0.00 0.10 0.00 79 1018.7
20260902184015 78 124 2.0 7.0 0.00 0.10 0.00 79 1018.7
20260902183512 79 107 2.0 6.0 0.00 0.10 0.00 78 1018.8
20260902183013 79 5 1.0 7.0 0.00 0.10 0.00 77 1018.9
20260902182515 79 130 3.0 8.0 0.00 0.10 0.00 76 1018.8
20260902182010 80 70 3.0 8.0 0.00 0.10 0.00 76 1018.9
20260902181512 80 150 3.0 8.0 0.00 0.10 0.00 74 1018.9
20260902181009 80 96 2.0 7.0 0.00 0.10 0.00 75 1018.9
20260902180509 80 109 2.0 9.0 0.00 0.10 0.00 75 1018.9
20260902180014 81 153 2.0 8.0 0.00 0.10 0.00 71 1018.9
20260902175514 81 141 1.0 8.0 0.00 0.10 0.00 75 1018.9
20260902175008 81 9 2.0 10.0 0.00 0.10 0.00 75 1018.9
20260902174506 80 122 4.0 10.0 0.00 0.10 0.00 73 1019.0
20260902174007 80 87 1.0 9.0 0.00 0.10 0.00 74 1019.0
20260902173507 80 69 3.0 9.0 0.00 0.10 0.00 73 1018.9
20260902173008 80 98 3.0 8.0 0.00 0.10 0.00 74 1018.9
20260902172508 80 9 2.0 8.0 0.00 0.10 0.00 74 1018.8
20260902172005 80 53 4.0 11.0 0.00 0.10 0.00 73 1018.6
20260902171505 80 113 4.0 11.0 0.00 0.10 0.00 72 1018.5
20260902171004 80 147 3.0 9.0 0.00 0.10 0.00 73 1018.5
20260902170504 81 141 2.0 9.0 0.00 0.10 0.00 74 1018.5
20260902170003 80 38 3.0 11.0 0.00 0.10 0.00 74 1018.4
20260902165503 80 140 1.0 11.0 0.00 0.10 0.00 75 1018.4